Location: Chuathbaluk
(61.5726°N, 159.2454°W)
Time: 01:48:42
(UTC+00:00)

TIGRISAT - Pass Details

Date: 23 January 2021
Orbit: 605 x 688 km, 97.7° (Epoch: 05 March)

Event Time Altitude Azimuth Distance (km) Brightness Sun altitude
Rises 15:36:02 0° 121° (ESE) 2,885 ? -25.5°
Reaches altitude 10° 15:38:27 10° 109° (ESE) 1,993 ? -25.2°
Maximum altitude 15:42:03 26° 53° (NE) 1,235 ? -24.8°
Drops below altitude 10° 15:45:45 10° 356° (N) 2,041 ? -24.4°
Enters shadow 15:46:42 - 351° (N) 2,386 ? -24.3°
